Weather History for MMTO - November, 2012

Change the Weather History Date:

Sunday, November 4, 2012

  Actual Average Record
Temperature  
Mean Temperature 54 °F -  
Max Temperature 59 °F 68 °F 75 °F (2005)
Min Temperature 48 °F 38 °F 32 °F (1999)
Degree Days  
Heating Degree Days 12    
Growing Degree Days 4 (Base 50)    
Moisture  
Dew Point 44 °F    
Average Humidity 75    
Maximum Humidity 93    
Minimum Humidity 51    
Precipitation  
Precipitation 0.00 in - - ()
Sea Level Pressure  
Sea Level Pressure 30.21 in    
Wind  
Wind Speed 4 mph ()    
Max Wind Speed 10 mph    
Max Gust Speed -    
Visibility 4.1 miles    
Events Rain    
Averages and records for this station are not official NWS values.
T = Trace of Precipitation, MM = Missing Value Source: Averaged Metar Reports

Daily Weather History Graph

Daily Weather History Graph

Search for Another Location

Airport or City:

Trip Planner

Search our weather history database for the weather conditions in past years. The results will help you decide how hot, cold, wet, or windy it might be!

Date:

Astronomy

Nov. 04, 2012 Rise Set
Actual Time 6:40 AM CST 6:02 PM CST
Civil Twilight 6:17 AM CST 6:25 PM CST
Nautical Twilight 5:51 AM CST 6:51 PM CST
Astronomical Twilight 5:25 AM CST 7:17 PM CST
Moon 10:48 PM CST 11:17 AM CST
Length of Visible Light 12h 07m
Length of Day
11h 22m
Waning Gibbous, 72% of the Moon is Illuminated
Nov 4
Waning Gibbous
Nov 6
Last Quarter
Nov 13
New
Nov 20
First Quarter
Nov 28
Full

Hourly Weather History & Observations

Time (CST) Temp. Dew Point Humidity Pressure Visibility Wind Dir Wind Speed Gust Speed Precip Events Conditions
12:45 AM 50.0 °F 44.6 °F 82% 30.36 in 3.0 mi ESE 4.6 mph - N/A Rain Light Rain
1:45 AM 50.0 °F 44.6 °F 82% 30.35 in 3.0 mi East 4.6 mph - N/A Rain Light Rain
2:45 AM 50.0 °F 44.6 °F 82% 29.99 in 3.0 mi East 4.6 mph - N/A   Overcast
3:45 AM 48.2 °F 44.6 °F 87% 30.32 in 3.0 mi Calm Calm - N/A   Overcast
4:45 AM 48.2 °F 46.4 °F 93% 30.33 in 3.0 mi ENE 3.5 mph - N/A Rain Light Rain
5:45 AM 48.2 °F 46.4 °F 93% 29.91 in 3.0 mi East 3.5 mph - N/A   Overcast
6:45 AM 50.0 °F 44.6 °F 82% 30.36 in 3.0 mi ESE 3.5 mph - N/A   Overcast
7:45 AM 50.0 °F 44.6 °F 82% 30.37 in 3.0 mi ESE 3.5 mph - N/A   Overcast
8:41 AM 53.6 °F 44.6 °F 72% 29.92 in 3.0 mi ESE 5.8 mph - N/A   Overcast
9:45 AM 55.4 °F 41.0 °F 58% 30.39 in 6.0 mi SE 6.9 mph - N/A   Overcast
10:45 AM 57.2 °F 41.0 °F 55% 30.38 in 6.0 mi SE 4.6 mph - N/A   Mostly Cloudy
11:45 AM 59.0 °F 41.0 °F 51% 29.81 in 6.0 mi South 3.5 mph - N/A   Overcast
12:45 PM 59.0 °F 41.0 °F 51% 30.34 in 5.0 mi South 8.1 mph - N/A Rain Light Rain
1:45 PM 57.2 °F 41.0 °F 55% 30.33 in 6.0 mi South 10.4 mph - N/A   Overcast
2:45 PM 59.0 °F 41.0 °F 51% 29.73 in 5.0 mi SSE 9.2 mph - N/A   Overcast
3:45 PM 55.4 °F 46.4 °F 72% 30.35 in 5.0 mi South 10.4 mph - N/A   Overcast
4:45 PM 55.4 °F 42.8 °F 63% 30.36 in 5.0 mi WNW 3.5 mph - N/A   Overcast
5:45 PM 53.6 °F 48.2 °F 82% 29.91 in 5.0 mi WNW 5.8 mph - N/A   Overcast
6:45 PM 51.8 °F 46.4 °F 82% 30.38 in 5.0 mi WNW 4.6 mph - N/A   Overcast
7:45 PM 50.0 °F 46.4 °F 87% 30.40 in 5.0 mi Calm Calm - N/A   Overcast
8:45 PM 50.0 °F 46.4 °F 87% 29.96 in 4.0 mi Calm Calm - N/A   Haze
9:45 PM 50.0 °F 46.4 °F 87% 30.43 in 3.0 mi Calm Calm - N/A   Haze
10:45 PM 50.0 °F 46.4 °F 87% 30.42 in 3.0 mi Calm Calm - N/A   Overcast
11:45 PM 48.2 °F 44.6 °F 87% 29.92 in 3.0 mi Calm Calm - N/A   Overcast